Date String (YYYY-MM-DD hh:mm:ss) UTC,Instrument flags,Ambient pressure (hPa),Sample flow (lpm),Bypass flow (lpm),Sample temperature (°C),Ambient temperature (°C),ASC tube jacket temperature (°C),LED temperature (°C),Box temperature (°C),Sample RH (%),Span deviation,Mass concentration (μg/m³),Mass concentration (μg/m³),Mass concentration (μg/m³)
DateTimeUTC,F1_M11,P_M11,Q1_M11,Q2_M11,T1_M11,T2_M11,T3_M11,T4_M11,T5_M11,U1_M11,ZSPAN_M11,X0_M11,X2_M11,X1_M11
2022-01-13 21:00:00,,0827.4,5.01,0.00,30.1,27.0,00.0,39.4,31.5,08.4,0000.0,0015.13,0008.61,0008.00
2022-01-13 21:01:00,,0827.4,4.99,0.00,30.1,27.4,00.0,39.3,31.6,08.5,0000.0,0015.17,0008.60,0007.96
2022-01-13 21:02:00,,0827.4,4.99,0.00,30.1,27.8,00.0,39.3,31.7,08.4,0000.0,0015.22,0008.56,0007.94
2022-01-13 21:03:00,,0827.3,5.00,0.00,30.1,28.1,00.0,39.3,31.7,08.4,0000.0,0014.58,0008.49,0007.88
2022-01-13 21:04:00,,0827.4,5.00,0.00,30.1,28.4,00.0,39.2,31.8,08.5,0000.0,0014.17,0008.48,0007.85
2022-01-13 21:05:00,,0827.4,5.01,0.00,30.1,28.6,00.0,39.2,31.8,09.4,0000.0,0014.30,0008.39,0007.76
2022-01-13 21:06:00,,0827.3,5.00,0.00,30.1,28.7,00.0,39.2,31.8,09.7,0000.0,0014.36,0008.25,0007.64
2022-01-13 21:07:00,,0827.3,4.98,0.00,30.2,28.8,00.0,39.2,31.9,10.0,0000.0,0014.04,0008.13,0007.53
2022-01-13 21:08:00,,0827.3,5.01,0.00,30.2,29.0,00.0,39.2,31.9,10.4,0000.0,0014.17,0008.01,0007.43
2022-01-13 21:09:00,,0827.4,4.99,0.00,30.2,29.0,00.0,39.2,31.9,10.4,0000.0,0014.04,0007.94,0007.34
2022-01-13 21:10:00,,0827.3,5.01,0.00,30.2,29.1,00.0,39.2,32.0,10.4,0000.0,0013.20,0007.92,0007.29
2022-01-13 21:11:00,,0827.3,4.99,0.00,30.2,29.2,00.0,39.2,32.0,10.4,0000.0,0013.20,0007.82,0007.19
2022-01-13 21:12:00,,0827.3,5.01,0.00,30.3,29.3,00.0,39.2,32.0,10.0,0000.0,0012.99,0007.71,0007.12
2022-01-13 21:13:00,,0827.2,4.98,0.00,30.3,29.4,00.0,39.2,32.0,09.4,0001.9,0012.52,0007.67,0007.06
2022-01-13 21:14:00,,0827.3,5.01,0.00,30.3,29.4,00.0,39.2,32.0,09.9,0003.2,0012.51,0007.64,0007.03
2022-01-13 21:15:00,,0827.3,4.99,0.00,30.3,29.5,00.0,39.2,32.1,09.6,0005.5,0012.65,0007.59,0006.98
2022-01-13 21:16:00,,0827.2,4.99,0.00,30.3,29.5,00.0,39.2,32.1,09.4,0005.5,0012.54,0007.66,0007.04
2022-01-13 21:17:00,,0827.3,5.00,0.00,30.4,29.5,00.0,39.3,32.1,10.4,0005.5,0011.82,0007.65,0007.05
2022-01-13 21:18:00,,0827.3,5.00,0.00,30.4,29.6,00.0,39.3,32.2,10.6,0006.2,0011.95,0007.54,0006.98
2022-01-13 21:19:00,,0827.3,5.00,0.00,30.4,29.6,00.0,39.3,32.2,10.6,0007.0,0011.99,0007.50,0006.91
2022-01-13 21:20:00,,0827.2,5.01,0.00,30.4,29.6,00.0,39.3,32.2,10.4,0008.0,0011.70,0007.45,0006.86
2022-01-13 21:21:00,,0827.2,4.98,0.00,30.5,29.7,00.0,39.3,32.2,10.1,0009.1,0011.64,0007.37,0006.81
2022-01-13 21:22:00,,0827.7,5.01,0.00,30.5,29.7,00.0,39.4,32.3,09.8,0008.8,0012.07,0007.38,0006.80
2022-01-13 21:23:00,,0827.6,4.99,0.00,30.5,29.7,00.0,39.4,32.3,09.6,0006.8,0012.33,0007.42,0006.81
2022-01-13 21:24:00,,0827.1,5.01,0.00,30.5,29.7,00.0,39.4,32.3,09.7,0000.0,0012.71,0007.43,0006.82
2022-01-13 21:25:00,,0827.1,4.99,0.00,30.6,29.8,00.0,39.4,32.3,09.5,0000.0,0013.02,0007.42,0006.81
2022-01-13 21:26:00,,0827.1,5.01,0.00,30.6,29.8,00.0,39.4,32.3,09.4,0000.0,0012.84,0007.41,0006.80
2022-01-13 21:27:00,,0827.1,5.00,0.00,30.6,29.8,00.0,39.5,32.4,09.4,0000.0,0012.75,0007.37,0006.76
2022-01-13 21:28:00,,0827.0,4.99,0.00,30.6,29.8,00.0,39.5,32.4,09.4,0000.0,0012.74,0007.42,0006.80
2022-01-13 21:29:00,,0827.0,5.02,0.00,30.6,29.8,00.0,39.5,32.4,10.0,0000.0,0012.46,0007.52,0006.89
2022-01-13 21:30:00,,0827.0,4.99,0.00,30.7,29.8,00.0,39.5,32.4,09.5,0000.0,0012.36,0007.60,0006.99
2022-01-13 21:31:00,,0827.0,5.01,0.00,30.7,29.9,00.0,39.5,32.4,09.5,0000.0,0012.50,0007.73,0007.12
2022-01-13 21:32:00,,0827.0,4.99,0.00,30.7,29.9,00.0,39.6,32.4,10.4,0000.0,0012.38,0007.74,0007.14
2022-01-13 21:33:00,,0827.0,5.01,0.00,30.7,29.9,00.0,39.6,32.5,09.7,0000.0,0011.93,0007.73,0007.13
2022-01-13 21:34:00,,0827.0,5.01,0.00,30.7,29.9,00.0,39.6,32.5,10.4,0000.0,0011.98,0007.69,0007.11
2022-01-13 21:35:00,,0827.0,4.99,0.00,30.7,29.7,00.0,39.6,32.4,10.1,0000.0,0011.51,0007.64,0007.07
2022-01-13 21:36:00,,0827.0,5.01,0.00,30.6,27.8,00.0,39.6,32.0,09.5,0000.0,0011.27,0007.64,0007.07
2022-01-13 21:37:00,,0827.0,4.99,0.00,30.5,26.8,00.0,39.6,31.7,09.9,0000.0,0011.19,0007.57,0007.00
2022-01-13 21:38:00,,0826.9,5.02,0.00,30.4,27.0,00.0,39.5,31.7,09.1,0000.0,0011.32,0007.50,0006.93
2022-01-13 21:39:00,,0827.0,5.00,0.00,30.3,27.4,00.0,39.4,31.8,08.6,0000.0,0011.50,0007.44,0006.87
2022-01-13 21:40:00,,0826.9,5.00,0.00,30.2,27.8,00.0,39.4,31.8,08.4,0000.0,0011.50,0007.42,0006.83
2022-01-13 21:41:00,,0827.0,5.00,0.00,30.2,28.1,00.0,39.4,31.8,08.5,0000.0,0011.44,0007.41,0006.78
2022-01-13 21:42:00,,0827.0,4.99,0.00,30.2,28.4,00.0,39.3,31.8,09.8,0000.0,0011.86,0007.32,0006.69
2022-01-13 21:43:00,,0827.0,5.01,0.00,30.2,28.6,00.0,39.3,31.9,10.7,0000.0,0012.11,0007.32,0006.65
2022-01-13 21:44:00,,0826.9,4.99,0.00,30.2,28.8,00.0,39.3,31.9,09.8,0000.0,0012.03,0007.26,0006.61
2022-01-13 21:45:00,,0826.9,4.99,0.00,30.2,28.9,00.0,39.3,32.0,08.9,0000.0,0012.01,0007.25,0006.57
2022-01-13 21:46:00,,0827.0,5.01,0.00,30.3,29.0,00.0,39.3,32.0,09.8,0000.0,0013.34,0007.26,0006.55
2022-01-13 21:47:00,,0827.0,5.00,0.00,30.3,29.1,00.0,39.3,32.0,10.1,0000.0,0014.03,0007.22,0006.50
2022-01-13 21:48:00,,0826.9,5.00,0.00,30.3,29.2,00.0,39.3,32.0,10.3,0000.0,0014.14,0007.25,0006.52
2022-01-13 21:49:00,,0826.9,4.99,0.00,30.3,29.2,00.0,39.3,32.0,10.6,0000.0,0014.04,0007.31,0006.56
2022-01-13 21:50:00,,0827.0,5.00,0.00,30.3,29.3,00.0,39.3,32.1,10.7,0000.1,0014.39,0007.42,0006.67
2022-01-13 21:51:00,,0827.0,5.00,0.00,30.4,29.3,00.0,39.3,32.1,10.8,0007.3,0014.65,0007.61,0006.82
2022-01-13 21:52:00,,0826.9,4.99,0.00,30.4,29.4,00.0,39.3,32.1,11.3,0009.8,0014.84,0007.74,0006.95
2022-01-13 21:53:00,,0826.9,5.01,0.00,30.4,29.4,00.0,39.3,32.1,11.0,0008.8,0014.51,0007.87,0007.11
2022-01-13 21:54:00,,0826.9,4.98,0.00,30.4,29.4,00.0,39.4,32.1,10.5,0005.3,0014.91,0008.11,0007.34
2022-01-13 21:55:00,,0826.8,5.01,0.00,30.4,29.4,00.0,39.4,32.1,10.3,0007.5,0015.81,0008.46,0007.62
2022-01-13 21:56:00,,0826.7,5.01,0.00,30.4,29.4,00.0,39.4,32.1,10.2,0009.6,0016.00,0008.75,0007.88
2022-01-13 21:57:00,,0826.7,5.00,0.00,30.4,29.4,00.0,39.4,32.1,09.9,0010.9,0014.91,0008.95,0008.07
2022-01-13 21:58:00,,0826.7,4.99,0.00,30.3,29.4,00.0,39.4,32.1,10.0,0011.8,0014.71,0009.11,0008.22
2022-01-13 21:59:00,,0826.7,5.01,0.00,30.3,29.4,00.0,39.4,32.0,09.8,0011.8,0015.06,0009.22,0008.33
